[[{"header":{"parameterUnit":"m.s-1","parameterCategory":1,"la1":30.2991,"la2":30.254,"lo1":-89.0895,"lo2":-89.0444,"dy":0.0017,"dx":0.0017,"nx":28,"ny":28,"refTime":"2025-06-07T03:00:00:Z","depth":0,"parameterNumber":2,"parameterNumberName":"U-component_of_WINDS"},"data":[0,0,0,0,0,0,0,0,0,0,0,0,0,0,0,0,0,0,0,0,0,0,0,0,0,0,0,0,0,0,0,0,0,0,0,0,0,0,0,0,0,0,0,0,0,0,0,0,0,0,0,0,0,0,0,0,0,0,4.5093,4.5095,0,4.521,4.5211,4.5213,4.5176,4.5173,4.5171,4.5169,4.5289,4.5294,4.53,0,0,0,0,0,0,0,0,0,0,0,0,0,4.4837,4.4842,4.5093,4.5095,4.5096,4.521,4.5212,4.5213,4.5176,4.5173,4.517,4.5167,4.5287,4.5294,4.53,0,0,0,0,0,0,0,0,0,0,0,0,0,4.4951,4.4844,4.5093,4.5091,4.5093,4.521,4.5212,4.5214,4.5177,4.5173,4.517,4.5166,4.5285,4.5293,4.5301,4.5427,0,0,4.5327,4.533,0,0,0,0,0,0,0,0,4.4944,4.496,4.509,4.5092,4.5093,4.5175,4.5165,4.5285,4.5178,4.5145,4.5169,4.5164,4.5254,4.5265,4.5295,4.5433,4.5438,4.5327,4.5332,4.5336,4.5338,0,0,0,0,0,0,0,4.4936,4.4955,4.5139,4.5092,4.5094,4.5085,4.5097,4.5188,4.5219,4.5148,4.5145,4.5159,4.5254,4.5287,4.5297,4.544,4.5327,4.5334,4.534,4.5343,4.5683,4.5687,0,0,0,0,0,0,4.4928,4.4949,4.5136,4.5143,4.5008,4.5092,4.5106,4.5152,4.5218,4.5224,4.5162,4.5157,4.5275,4.5288,4.5301,4.545,4.5336,4.5344,4.5348,4.5679,4.5684,4.5688,0,0,0,0,0,0,4.4922,4.4945,4.5131,4.5045,4.5068,4.5101,4.5153,4.5157,4.5189,4.5229,4.5235,4.519,4.5272,4.529,4.5395,4.5454,4.5347,4.5355,4.5674,4.568,4.5686,4.575,0,0,0,0,0,0,4.4915,4.4943,4.4992,4.5047,4.5073,4.5223,4.5157,4.5162,4.5203,4.5198,4.5257,4.5263,4.5271,4.5383,4.5403,4.5463,4.5361,4.5669,4.5677,4.5684,4.5742,4.5757,4.577,0,0,0,0,0,4.4906,4.5006,4.4994,4.5017,4.5134,4.5227,4.5242,4.5248,4.5208,4.5257,4.5282,4.5261,4.5445,4.5394,4.5417,4.548,4.5665,4.5675,4.5684,4.5736,4.5754,4.577,0,0,0,0,0,0,4.4958,4.5013,4.5001,4.5121,4.5169,4.522,4.5282,4.5268,4.5329,4.5321,4.5327,4.534,4.5448,4.5475,4.5418,4.5603,4.5549,4.5563,4.5581,4.5599,4.5612,4.5602,4.5368,0,0,0,0,0,4.4983,4.5054,4.5098,4.52,4.5225,4.5249,4.529,4.5291,4.5341,4.5361,4.5395,4.5444,4.5512,4.5558,4.5623,4.5747,4.5758,4.5801,4.5815,4.5826,4.5837,4.5901,4.592,4.5718,4.5718,4.5718,0,0,4.5036,4.5075,4.5119,4.5212,4.5249,4.5321,4.5267,4.5346,4.5399,4.5374,4.5474,4.55,4.5556,4.567,4.5722,4.5696,4.5896,4.5838,4.5846,4.5852,4.5913,4.5932,4.5949,4.5725,4.5723,4.5722,0,0,4.5168,4.5207,4.5294,4.5332,4.5389,4.5404,4.5425,4.5478,4.5494,4.5595,4.5576,4.564,4.5759,4.5798,4.5833,4.5979,4.5961,4.6001,4.6071,4.6133,4.6149,4.6163,4.6212,4.6229,4.6012,4.6012,4.6013,0,4.5227,4.5335,4.5341,4.5421,4.546,4.544,4.5527,4.5565,4.564,4.5668,4.5638,4.5784,4.5821,4.5942,4.5977,4.6008,4.603,4.5993,4.6146,4.6161,4.6174,4.622,4.6239,4.6017,4.6016,4.6016,4.6015,0,4.5402,4.5477,4.5541,4.5613,4.5661,4.5744,4.5761,4.5809,4.5805,4.5824,4.5925,4.5968,4.604,4.607,4.6068,4.619,4.6172,4.6145,4.6089,4.6197,4.624,4.6258,4.6023,4.6021,4.602,4.6019,0,0,4.557,4.5643,4.5666,4.5696,4.5757,4.5815,4.5897,4.5967,4.6006,4.6059,4.6126,4.6226,4.62,4.6241,4.6243,4.6298,4.6406,4.6264,4.6265,4.6286,4.654,4.6557,4.6578,4.6396,4.6399,4.6402,4.6534,0,4.5705,4.5848,4.5854,4.5984,4.6052,4.6033,4.6104,4.6148,4.6167,4.6227,4.6249,4.6318,4.628,4.6304,4.6358,4.6382,4.6457,4.6373,4.6456,4.6459,4.6439,4.6602,4.6621,4.6743,4.6551,4.6554,4.6556,0,4.5881,4.5937,4.6073,4.6122,4.615,4.6214,4.6277,4.6335,4.6385,4.6394,4.6439,4.6433,4.6515,4.6459,4.6571,4.6514,4.6549,4.6566,4.657,4.6576,4.6512,4.6608,4.6783,4.68,4.6584,4.6582,4.658,0,4.5985,4.6095,4.619,4.6218,4.6278,4.6322,4.6349,4.6395,4.6435,4.6491,4.6517,4.6582,4.6617,4.6667,4.6678,4.6637,4.6789,4.6735,4.6797,4.6797,4.6828,4.6825,4.7007,4.6856,4.6856,4.6856,4.6855,0,4.6132,4.6216,4.6237,4.6295,4.6387,4.6394,4.6484,4.6508,4.6549,4.661,4.66,4.6657,4.667,4.673,4.674,4.6829,4.6846,4.6855,4.6856,4.6854,4.6852,4.6874,4.6865,4.686,4.6859,4.6858,4.6858,0,4.6263,4.6281,4.6382,4.643,4.6444,4.6509,4.655,4.6605,4.6622,4.67,4.6718,4.6746,4.6816,4.6832,4.6917,4.6923,4.7027,4.7022,4.701,4.7009,4.7069,4.7062,4.7269,4.7295,4.713,4.7132,4.7133,0,4.6354,4.6417,4.6471,4.6511,4.654,4.6605,4.6646,4.6655,4.6698,4.6758,4.6805,4.6873,4.6928,4.7041,4.7068,4.7131,4.7125,4.7194,4.7135,4.713,4.7122,4.7116,4.7121,4.7204,4.7206,4.7207,4.7208,0,4.6514,4.6519,4.6578,4.664,4.6688,4.6738,4.6785,4.6818,4.6834,4.6883,4.6953,4.6996,4.708,4.7147,4.7211,4.7238,4.7225,4.7227,4.7244,4.7241,4.723,4.7233,4.7037,4.7221,4.722,4.7219,4.7218,4.7218,4.6625,4.6679,4.6724,4.679,4.6826,4.687,4.6922,4.6946,4.7005,4.7073,4.7076,4.7152,4.7198,4.7281,4.7312,4.7371,4.735,4.7376,4.7382,4.7387,4.7391,4.7223,4.7384,4.7383,4.7383,4.7383,4.7382,0,4.678,4.6808,4.6869,4.6934,4.6985,4.6969,4.7019,4.7063,4.713,4.7174,4.7227,4.7307,4.7372,4.7404,4.7467,4.7508,4.7504,4.7525,4.752,4.7526,4.7408,4.7385,4.7527,4.7527,4.7527,4.7527,4.7527,4.7527,4.6867,4.6956,4.6966,4.7072,4.71,4.7174,4.7204,4.7243,4.7278,4.7367,4.742,4.7441,4.7479,4.7545,4.7603,4.7611,4.7633,4.7656,4.766,4.7549,4.7534,4.752,4.7498,4.7662,4.7662,4.7772,4.7773,4.7774]},{"header":{"parameterUnit":"m.s-1","parameterCategory":1,"la1":30.2991,"la2":30.254,"lo1":-89.0895,"lo2":-89.0444,"dy":0.0017,"dx":0.0017,"nx":28,"ny":28,"refTime":"2025-06-07T03:00:00:Z","depth":0,"parameterNumber":3,"parameterNumberName":"V-component_of_WINDS"},"data":[0,0,0,0,0,0,0,0,0,0,0,0,0,0,0,0,0,0,0,0,0,0,0,0,0,0,0,0,0,0,0,0,0,0,0,0,0,0,0,0,0,0,0,0,0,0,0,0,0,0,0,0,0,0,0,0,0,0,1.7475,1.7475,0,1.7521,1.7522,1.7522,1.7511,1.751,1.7509,1.7508,1.7553,1.7555,1.7557,0,0,0,0,0,0,0,0,0,0,0,0,0,1.7374,1.7376,1.7475,1.7476,1.7476,1.7521,1.7522,1.7522,1.7511,1.751,1.7508,1.7507,1.7553,1.7555,1.7558,0,0,0,0,0,0,0,0,0,0,0,0,0,1.7419,1.7377,1.7475,1.7476,1.7476,1.7521,1.7522,1.7522,1.7511,1.751,1.7508,1.7507,1.7552,1.7555,1.7558,1.7604,0,0,1.7567,1.7569,0,0,0,0,0,0,0,0,1.7416,1.7423,1.7475,1.7476,1.7476,1.7509,1.7503,1.755,1.7511,1.7498,1.7508,1.7506,1.754,1.7544,1.7555,1.7606,1.7608,1.7568,1.7569,1.7571,1.7572,0,0,0,0,0,0,0,1.7413,1.742,1.7493,1.7476,1.7477,1.7473,1.7478,1.7512,1.7526,1.7499,1.7498,1.7504,1.754,1.7552,1.7556,1.7609,1.7568,1.757,1.7572,1.7573,1.7698,1.7699,0,0,0,0,0,0,1.741,1.7418,1.7492,1.7494,1.7443,1.7476,1.7481,1.75,1.7525,1.7528,1.7505,1.7503,1.7548,1.7552,1.7558,1.7612,1.7571,1.7574,1.7575,1.7696,1.7698,1.77,0,0,0,0,0,0,1.7408,1.7417,1.749,1.7456,1.7465,1.7479,1.75,1.7501,1.7514,1.753,1.7532,1.7515,1.7547,1.7553,1.7592,1.7613,1.7575,1.7578,1.7695,1.7697,1.7699,1.7722,0,0,0,0,0,0,1.7405,1.7416,1.7434,1.7457,1.7467,1.7525,1.7501,1.7503,1.7519,1.7517,1.754,1.7543,1.7546,1.7588,1.7595,1.7617,1.758,1.7693,1.7696,1.7698,1.7719,1.7725,1.7729,0,0,0,0,0,1.7401,1.7439,1.7435,1.7444,1.749,1.7526,1.7532,1.7536,1.7521,1.7539,1.7549,1.7542,1.761,1.7592,1.76,1.7623,1.7691,1.7695,1.7698,1.7717,1.7723,1.7729,0,0,0,0,0,0,1.7418,1.7442,1.7438,1.7484,1.7503,1.7524,1.7547,1.7542,1.7566,1.7563,1.7566,1.7571,1.761,1.7621,1.76,1.7668,1.7648,1.7654,1.766,1.7666,1.7671,1.7668,1.7583,0,0,0,0,0,1.7428,1.7455,1.7474,1.7513,1.7522,1.7533,1.7549,1.755,1.7569,1.7577,1.759,1.7609,1.7634,1.7651,1.7675,1.7721,1.7725,1.774,1.7745,1.7749,1.7753,1.7777,1.7784,1.771,1.771,1.771,0,0,1.7447,1.7463,1.748,1.7516,1.7531,1.7559,1.754,1.757,1.759,1.7582,1.7619,1.7629,1.765,1.7692,1.7711,1.7702,1.7775,1.7753,1.7756,1.7759,1.7781,1.7788,1.7794,1.7713,1.7712,1.7712,0,0,1.7496,1.7511,1.7544,1.756,1.7582,1.7589,1.7597,1.7618,1.7624,1.7662,1.7656,1.7679,1.7723,1.7738,1.7751,1.7804,1.7798,1.7812,1.7838,1.786,1.7866,1.7871,1.7889,1.7895,1.7816,1.7816,1.7816,0,1.7516,1.7558,1.7562,1.7593,1.7608,1.7602,1.7635,1.7649,1.7678,1.7689,1.7678,1.7732,1.7746,1.779,1.7803,1.7815,1.7823,1.7809,1.7865,1.787,1.7875,1.7892,1.7899,1.7818,1.7818,1.7817,1.7817,0,1.7582,1.7611,1.7635,1.7664,1.7682,1.7714,1.7721,1.7739,1.7738,1.7746,1.7783,1.7799,1.7826,1.7837,1.7836,1.7881,1.7874,1.7864,1.7844,1.7883,1.7899,1.7906,1.782,1.7819,1.7819,1.7819,0,0,1.7643,1.7673,1.7682,1.7694,1.7718,1.774,1.7771,1.7797,1.7812,1.7832,1.7857,1.7894,1.7884,1.7899,1.79,1.792,1.796,1.7908,1.7908,1.7916,1.8008,1.8015,1.8023,1.7956,1.7957,1.7958,1.8006,0,1.7694,1.7749,1.7752,1.7801,1.7827,1.7821,1.7847,1.7864,1.7872,1.7894,1.7902,1.7928,1.7914,1.7922,1.7942,1.7951,1.7978,1.7947,1.7978,1.7979,1.7972,1.8031,1.8039,1.8084,1.8013,1.8014,1.8014,0,1.776,1.7782,1.7834,1.7853,1.7864,1.7888,1.7912,1.7934,1.7952,1.7956,1.7972,1.797,1.8,1.7979,1.802,1.7999,1.8012,1.8018,1.8019,1.8022,1.7999,1.8035,1.8099,1.8105,1.8024,1.8024,1.8023,0,1.7798,1.7841,1.7877,1.7888,1.7911,1.7928,1.7938,1.7956,1.7971,1.7992,1.8001,1.8025,1.8038,1.8056,1.8059,1.8044,1.81,1.808,1.8103,1.8103,1.8115,1.8114,1.8181,1.8124,1.8124,1.8124,1.8123,0,1.7853,1.7885,1.7894,1.7917,1.7951,1.7955,1.7989,1.7998,1.8013,1.8036,1.8032,1.8053,1.8057,1.8079,1.8082,1.8115,1.8121,1.8124,1.8124,1.8124,1.8124,1.8132,1.8129,1.8125,1.8125,1.8125,1.8124,0,1.7902,1.791,1.7949,1.7967,1.7973,1.7997,1.8013,1.8034,1.804,1.8069,1.8076,1.8086,1.8112,1.8117,1.8148,1.815,1.8188,1.8186,1.8182,1.8181,1.8204,1.8201,1.8278,1.8288,1.8225,1.8226,1.8226,0,1.7937,1.7961,1.7982,1.7997,1.8009,1.8033,1.8049,1.8053,1.8069,1.8091,1.8109,1.8134,1.8154,1.8195,1.8204,1.8227,1.8224,1.825,1.8228,1.8226,1.8224,1.8222,1.8224,1.8254,1.8254,1.8255,1.8255,0,1.7997,1.7999,1.8022,1.8046,1.8065,1.8083,1.8101,1.8114,1.812,1.8138,1.8164,1.818,1.8211,1.8235,1.8258,1.8267,1.8262,1.8262,1.8269,1.8268,1.8265,1.8266,1.8193,1.826,1.826,1.826,1.8259,1.8259,1.8039,1.8059,1.8077,1.8103,1.8117,1.8133,1.8153,1.8162,1.8184,1.821,1.821,1.8239,1.8255,1.8285,1.8296,1.8317,1.8309,1.8319,1.8321,1.8323,1.8325,1.8262,1.8321,1.8321,1.8321,1.8321,1.8321,0,1.8098,1.8109,1.8132,1.8157,1.8177,1.8171,1.819,1.8206,1.8231,1.8248,1.8267,1.8297,1.832,1.8331,1.8354,1.8369,1.8367,1.8375,1.8373,1.8375,1.8331,1.8323,1.8376,1.8376,1.8376,1.8376,1.8376,1.8376,1.8131,1.8165,1.8169,1.821,1.8221,1.8249,1.826,1.8275,1.8288,1.8321,1.834,1.8347,1.8361,1.8385,1.8405,1.8408,1.8416,1.8425,1.8426,1.8384,1.8379,1.8373,1.8366,1.8427,1.8427,1.8469,1.8469,1.8469]}]]